Snowfall_Accumulation
nan nan nan nan nan nan nan nan nan nan nan nan nan nan nan nan nan 0.0 0.0 0.0 0.0 nan nan 0.0 0.0 0.0 0.0 0.0 0.0 0.0 0.0 0.0 0.0 0.0 0.0 0.0 0.0 0.0 0.0 0.0 0.0 0.0 0.0 0.0 0.0
nan nan nan nan nan nan nan nan nan nan nan nan nan nan nan nan 0.0 0.0 nan nan nan nan 0.0 0.0 0.0 0.0 0.0 0.0 0.0 0.0 0.0 0.0 0.0 0.0 0.0 0.0 0.0 0.0 0.0 0.0 0.0 0.0 0.0 0.0 0.0
nan nan nan nan nan nan nan nan nan nan nan nan nan nan nan 0.0 0.0 0.0 nan nan nan 0.0 0.0 0.0 0.0 0.0 0.0 0.0 0.0 0.0 0.0 0.0 0.0 0.0 0.0 0.0 0.0 0.0 0.0 0.0 0.0 0.0 0.0 0.0 0.0
nan nan nan nan nan nan nan nan nan nan nan nan nan nan nan 0.0 0.0 0.0 nan nan nan 0.0 0.0 0.0 0.0 0.0 0.0 0.0 0.0 0.0 0.0 0.0 0.0 0.0 0.0 0.0 0.0 0.0 0.0 0.0 0.0 0.0 0.0 0.0 0.0
nan nan nan nan nan nan nan nan nan nan nan nan nan nan 0.0 0.0 0.0 0.0 nan nan 0.0 0.0 0.0 0.0 0.0 0.0 0.0 0.0 0.0 0.0 0.0 0.0 0.0 0.0 0.0 0.0 0.0 0.0 0.0 0.0 0.0 0.0 0.0 0.0 0.0
nan nan nan nan nan nan nan nan nan nan nan nan nan nan 0.0 0.0 0.0 0.0 0.0 0.0 0.0 0.0 0.0 0.0 0.0 0.0 0.0 0.0 0.0 0.0 0.0 0.0 0.0 0.0 0.0 0.0 0.0 0.0 0.0 0.0 0.0 0.0 0.0 0.0 0.0
nan nan nan nan nan nan nan nan nan nan nan nan nan 0.0 0.0 0.0 0.0 0.0 0.0 0.0 0.0 0.0 0.0 0.0 0.0 0.0 0.0 0.0 0.0 0.0 0.0 0.0 0.0 0.0 0.0 0.0 0.0 0.0 0.0 0.0 0.0 0.0 0.0 0.0 0.0
nan nan nan nan nan nan nan nan nan nan nan nan nan 0.0 0.0 0.0 0.0 0.0 0.0 0.0 0.0 0.0 0.0 0.0 0.0 0.0 0.0 0.0 0.0 0.0 0.0 0.2 0.0 0.0 0.0 0.0 0.1 0.0 0.0 0.0 0.0 0.0 0.0 0.0 0.0
nan nan nan nan nan nan nan nan nan nan nan nan 0.0 0.0 0.0 nan 0.0 0.0 0.0 0.0 0.0 0.0 0.0 0.0 0.0 0.0 0.0 0.2 0.9 0.1 2.8 0.1 0.0 0.0 0.0 0.0 0.0 0.0 0.0 0.0 0.0 0.0 0.0 0.0 0.0
nan nan nan nan nan nan nan nan nan nan 0.0 0.0 0.0 0.0 0.0 0.0 0.0 0.0 0.0 0.0 0.0 0.0 0.0 0.0 0.0 0.5 0.6 1.4 5.1 2.9 1.4 0.1 0.0 0.0 0.0 0.0 0.0 0.0 0.0 0.0 0.0 0.0 0.0 0.0 0.0
nan nan nan nan nan nan 0.0 0.0 0.0 0.0 0.0 0.0 0.0 0.0 0.0 0.0 0.0 0.0 0.0 0.0 0.0 0.0 0.3 0.0 2.6 3.8 0.0 0.0 0.0 0.0 0.1 0.1 0.0 0.0 0.0 0.0 0.0 0.0 0.0 0.0 0.0 0.0 0.0 0.0 0.0
nan nan nan nan nan nan 0.0 0.0 0.0 0.0 0.1 0.0 0.0 0.0 0.0 0.0 0.0 0.0 0.0 0.0 0.5 2.6 0.0 3.6 2.8 0.0 0.0 0.0 0.1 0.3 1.3 1.8 0.0 0.0 0.0 0.0 0.0 0.0 0.0 0.0 0.0 0.0 0.0 0.0 0.0
nan nan nan nan nan 0.0 0.0 0.0 0.0 0.0 0.2 0.0 0.0 0.0 0.0 0.0 0.0 0.0 0.0 0.0 0.9 3.3 1.7 2.0 0.0 0.0 0.0 0.1 0.4 0.3 1.9 0.6 0.1 0.0 0.1 0.0 0.6 0.0 0.0 0.0 0.0 0.0 0.0 0.0 0.0
nan nan nan nan nan 0.0 0.0 0.0 0.0 0.0 10.4 1.2 0.0 0.0 0.0 0.0 0.0 0.0 0.0 0.0 0.0 4.9 0.2 0.9 0.0 0.0 0.2 0.3 0.0 3.5 0.0 0.1 0.5 5.8 7.1 0.1 7.2 0.0 0.0 0.0 0.0 0.0 0.0 0.0 0.0
nan nan nan nan 0.0 0.0 0.0 0.0 0.0 0.0 43.3 0.0 0.0 0.0 0.0 0.0 0.0 0.0 0.0 0.0 0.0 1.9 4.7 2.3 0.1 0.2 1.5 0.0 0.0 1.0 0.0 0.1 0.3 3.8 2.8 1.4 6.8 0.0 0.0 0.0 0.0 0.0 0.0 0.0 0.0
nan nan nan 0.0 0.0 0.0 0.0 0.0 0.0 28.1 38.5 5.1 0.0 0.0 1.3 0.0 0.0 0.0 0.0 0.0 0.0 0.0 0.1 1.5 0.0 0.0 0.0 0.0 0.0 0.0 0.9 0.1 0.8 4.3 14.6 1.6 2.0 1.1 0.2 0.2 0.0 0.0 0.0 0.0 0.0
nan nan nan 0.0 0.0 0.0 0.0 0.0 40.1 53.6 1.0 3.6 2.2 0.0 0.6 0.3 0.0 0.0 0.0 0.0 1.1 10.4 6.9 0.3 0.5 0.0 0.0 0.2 0.0 0.3 5.6 16.7 14.9 20.1 7.1 2.2 1.0 2.7 0.2 0.0 0.0 0.0 0.0 0.0 0.0
nan nan nan 0.0 0.0 0.0 0.0 3.3 61.4 9.7 3.6 0.0 0.0 0.0 0.5 0.1 0.2 0.1 0.0 0.8 0.0 0.2 2.6 8.4 10.0 2.9 0.1 0.3 2.5 1.0 5.9 8.7 10.9 8.5 4.5 4.3 8.2 1.8 0.2 0.0 0.0 0.0 0.0 0.0 0.1
nan 0.0 0.0 0.0 0.0 0.0 0.7 52.6 25.2 1.9 0.0 0.1 0.1 1.8 1.9 0.1 1.0 1.3 0.2 0.5 0.1 0.6 6.9 4.8 3.7 0.0 0.1 0.1 0.1 2.7 8.2 0.2 9.2 4.6 9.6 4.8 2.3 0.6 0.4 1.4 0.1 0.0 0.0 0.1 0.1
0.0 0.0 0.0 0.0 0.0 0.0 20.5 nan 5.0 0.0 0.0 0.0 1.8 0.2 8.4 3.8 0.6 2.3 0.3 0.2 0.1 0.4 0.3 1.4 8.2 2.6 0.9 0.2 0.4 2.8 0.4 10.5 8.1 15.0 11.4 7.4 6.6 4.0 4.9 6.6 1.6 0.6 1.3 1.1 0.5
0.0 1.1 0.0 0.0 0.0 5.2 38.6 17.0 4.1 0.0 0.0 0.9 0.4 3.6 0.9 5.3 0.8 2.3 1.0 0.1 0.1 0.0 0.1 1.1 7.4 5.7 0.2 3.9 4.7 3.4 6.7 4.8 4.9 3.9 9.0 7.4 5.4 10.8 9.1 6.9 5.9 4.1 1.4 5.2 3.1
0.1 7.9 0.0 0.0 17.0 14.9 16.3 5.4 nan 0.1 0.0 0.1 0.1 0.1 1.7 1.7 1.4 3.9 1.0 0.6 0.1 0.5 0.6 0.2 1.4 9.5 5.5 0.0 0.0 0.6 3.9 1.2 5.9 5.4 3.5 3.8 7.5 5.1 8.2 9.2 7.3 5.1 3.1 1.9 4.1
0.9 0.8 0.0 0.0 29.0 16.1 4.8 4.1 1.0 0.4 0.4 0.1 0.7 0.0 0.0 4.8 5.4 0.2 0.5 0.0 0.0 0.3 1.0 0.1 7.2 11.6 5.3 3.5 0.1 1.7 0.5 0.6 1.7 1.0 4.7 8.4 8.0 5.5 5.4 7.0 7.9 8.6 5.2 4.5 4.4
0.3 10.4 4.7 1.6 0.8 3.0 4.9 4.7 3.4 0.2 0.1 0.2 0.2 0.0 0.1 4.2 0.2 3.0 0.4 0.1 0.0 0.3 nan nan 0.4 6.3 6.8 7.9 4.9 3.1 1.7 1.1 2.0 14.4 3.2 8.3 8.7 6.4 7.7 9.0 8.7 9.5 8.3 9.0 8.1
0.4 5.7 2.3 26.8 6.2 0.7 0.4 0.5 1.8 3.4 0.1 0.0 1.2 0.3 2.0 4.3 0.7 3.4 0.1 0.2 0.0 nan 0.0 0.4 12.3 0.2 1.3 1.6 2.0 2.5 4.2 2.0 6.9 6.5 13.5 10.3 7.1 12.5 13.3 13.6 14.8 12.0 11.0 10.5 10.7
1.4 2.3 0.9 2.5 0.3 0.6 1.1 0.8 1.5 1.3 0.6 0.9 1.1 0.2 0.1 4.5 0.4 0.8 0.4 0.0 0.4 0.2 0.0 0.1 13.7 2.6 6.7 0.2 0.2 2.3 0.4 0.8 3.5 3.4 5.6 2.4 11.0 14.0 11.8 7.9 12.0 14.2 12.3 11.7 12.4
0.0 0.0 0.0 nan 0.7 2.0 1.3 0.2 0.4 0.2 0.1 0.1 0.1 0.4 0.3 0.5 0.2 0.1 0.0 0.0 0.0 0.6 0.2 1.1 7.0 13.1 21.9 0.8 1.7 13.7 4.5 2.3 2.5 3.2 2.3 10.8 14.9 7.9 7.2 7.3 13.1 13.2 13.3 14.7 15.2
Water_Equivalent
nan nan nan nan nan nan nan nan nan nan nan nan nan nan nan nan nan 0.00 0.00 0.00 0.00 nan nan 0.00 0.00 0.00 0.00 0.00 0.00 0.00 0.00 0.00 0.00 0.00 0.00 0.00 0.00 0.00 0.00 0.00 0.00 0.00 0.00 0.00 0.00
nan nan nan nan nan nan nan nan nan nan nan nan nan nan nan nan 0.00 0.00 nan nan nan nan 0.00 0.00 0.00 0.00 0.00 0.00 0.00 0.00 0.00 0.00 0.00 0.00 0.00 0.00 0.00 0.00 0.00 0.00 0.00 0.00 0.00 0.00 0.00
nan nan nan nan nan nan nan nan nan nan nan nan nan nan nan 0.00 0.00 0.00 nan nan nan 0.00 0.00 0.00 0.00 0.00 0.00 0.00 0.00 0.00 0.00 0.00 0.00 0.00 0.00 0.00 0.00 0.00 0.00 0.00 0.00 0.00 0.00 0.00 0.00
nan nan nan nan nan nan nan nan nan nan nan nan nan nan nan 0.00 0.00 0.00 nan nan nan 0.00 0.00 0.00 0.00 0.00 0.00 0.00 0.00 0.00 0.00 0.00 0.00 0.00 0.00 0.00 0.00 0.00 0.00 0.00 0.00 0.00 0.00 0.00 0.00
nan nan nan nan nan nan nan nan nan nan nan nan nan nan 0.00 0.00 0.00 0.00 nan nan 0.00 0.00 0.00 0.00 0.00 0.00 0.00 0.00 0.00 0.00 0.00 0.00 0.00 0.00 0.00 0.00 0.00 0.00 0.00 0.00 0.00 0.00 0.00 0.00 0.00
nan nan nan nan nan nan nan nan nan nan nan nan nan nan 0.00 0.01 0.00 0.00 0.00 0.00 0.00 0.00 0.00 0.00 0.00 0.00 0.00 0.00 0.00 0.00 0.00 0.00 0.00 0.00 0.00 0.00 0.00 0.00 0.00 0.00 0.00 0.00 0.00 0.00 0.00
nan nan nan nan nan nan nan nan nan nan nan nan nan 0.00 0.00 0.00 0.00 0.00 0.00 0.00 0.00 0.00 0.00 0.00 0.00 0.00 0.00 0.00 0.00 0.00 0.00 0.00 0.00 0.00 0.00 0.00 0.00 0.00 0.00 0.00 0.00 0.00 0.00 0.00 0.00
nan nan nan nan nan nan nan nan nan nan nan nan nan 0.00 0.00 0.00 0.00 0.00 0.00 0.00 0.00 0.00 0.00 0.00 0.00 0.00 0.00 0.00 0.00 0.00 0.00 0.04 0.00 0.00 0.00 0.00 0.03 0.00 0.00 0.00 0.00 0.00 0.00 0.00 0.00
nan nan nan nan nan nan nan nan nan nan nan nan 0.00 0.00 0.00 nan 0.00 0.00 0.00 0.00 0.00 0.00 0.00 0.00 0.00 0.00 0.00 0.04 0.20 0.02 0.68 0.02 0.00 0.00 0.00 0.00 0.00 0.00 0.00 0.00 0.00 0.00 0.00 0.00 0.00
nan nan nan nan nan nan nan nan nan nan 0.00 0.00 0.00 0.00 0.00 0.00 0.00 0.00 0.00 0.00 0.00 0.00 0.00 0.00 0.00 0.12 0.13 0.28 0.84 0.61 0.29 0.01 0.00 0.00 0.00 0.00 0.00 0.00 0.00 0.00 0.00 0.00 0.00 0.00 0.00
nan nan nan nan nan nan 0.00 0.00 0.00 0.00 0.00 0.00 0.00 0.00 0.00 0.00 0.00 0.00 0.00 0.00 0.00 0.00 0.09 0.00 0.54 0.65 0.01 0.01 0.01 0.00 0.03 0.03 0.00 0.00 0.00 0.00 0.00 0.00 0.00 0.00 0.00 0.00 0.00 0.00 0.00
nan nan nan nan nan nan 0.00 0.00 0.00 0.00 0.02 0.00 0.00 0.00 0.00 0.00 0.00 0.00 0.00 0.00 0.17 0.72 0.01 0.77 0.46 0.00 0.00 0.00 0.02 0.05 0.28 0.40 0.00 0.00 0.01 0.00 0.00 0.00 0.00 0.00 0.00 0.00 0.00 0.00 0.00
nan nan nan nan nan 0.00 0.00 0.00 0.00 0.00 0.06 0.00 0.00 0.00 0.00 0.00 0.00 0.01 0.00 0.00 0.27 0.92 0.40 0.37 0.00 0.00 0.01 0.02 0.07 0.06 0.41 0.14 0.03 0.00 0.02 0.01 0.16 0.00 0.00 0.00 0.00 0.00 0.00 0.00 0.00
nan nan nan nan nan 0.00 0.00 0.00 0.00 0.00 2.94 0.40 0.00 0.00 0.00 0.00 0.01 0.00 0.00 0.00 0.01 1.42 0.06 0.20 0.00 0.01 0.04 0.05 0.00 0.55 0.00 0.02 0.10 0.85 1.05 0.03 0.80 0.00 0.00 0.00 0.00 0.00 0.00 0.00 0.00
nan nan nan nan 0.00 0.00 0.00 0.00 0.00 0.01 7.97 0.00 0.00 0.00 0.00 0.00 0.00 0.00 0.00 0.00 0.00 0.63 1.09 0.48 0.03 0.05 0.32 0.00 0.00 0.17 0.00 0.02 0.07 0.74 0.38 0.30 0.75 0.01 0.00 0.00 0.00 0.00 0.00 0.00 0.00
nan nan nan 0.00 0.00 0.00 0.00 0.00 0.00 7.35 7.20 1.39 0.00 0.00 0.31 0.00 0.00 0.00 0.00 0.00 0.00 0.01 0.02 0.36 0.00 0.01 0.01 0.00 0.00 0.00 0.18 0.02 0.16 0.85 1.72 0.34 0.32 0.25 0.03 0.03 0.00 0.00 0.00 0.00 0.00
nan nan nan 0.00 0.00 0.00 0.00 0.00 10.60 12.19 0.31 1.23 0.63 0.01 0.13 0.06 0.01 0.00 0.00 0.00 0.27 1.94 1.26 0.08 0.13 0.00 0.00 0.05 0.00 0.06 1.02 2.36 2.05 2.73 1.01 0.39 0.17 0.42 0.05 0.00 0.00 0.00 0.00 0.00 0.00
nan nan nan 0.00 0.00 0.00 0.00 1.19 16.09 2.41 0.88 0.00 0.00 0.00 0.12 0.02 0.06 0.03 0.01 0.27 0.00 0.04 0.47 1.28 1.57 0.73 0.02 0.07 0.45 0.20 0.91 1.07 1.26 1.05 0.50 0.63 0.89 0.29 0.05 0.01 0.00 0.00 0.00 0.00 0.02
nan 0.00 0.00 0.00 0.00 0.00 0.25 14.26 6.28 0.48 0.00 0.02 0.01 0.44 0.45 0.03 0.23 0.29 0.04 0.16 0.03 0.13 1.00 0.73 0.66 0.00 0.02 0.03 0.02 0.49 1.23 0.04 1.02 0.73 1.11 0.61 0.34 0.12 0.09 0.33 0.02 0.00 0.00 0.04 0.02
0.00 0.00 0.00 0.00 0.00 0.01 6.32 nan 1.40 0.01 0.00 0.01 0.40 0.04 1.84 0.91 0.13 0.46 0.07 0.05 0.02 0.10 0.07 0.26 1.03 0.67 0.23 0.06 0.09 0.58 0.09 1.37 1.21 1.95 1.22 0.80 0.69 0.47 0.61 1.02 0.40 0.13 0.24 0.22 0.11
0.00 0.44 0.00 0.00 0.00 1.82 10.68 4.51 1.03 0.00 0.00 0.19 0.10 0.79 0.20 1.09 0.17 0.45 0.21 0.03 0.03 0.01 0.01 0.22 1.12 1.04 0.04 0.71 0.75 0.63 1.09 0.79 0.75 0.61 0.93 0.69 0.53 1.45 1.14 0.97 0.87 0.71 0.21 0.83 0.53
0.03 2.67 0.00 0.00 4.60 4.04 3.90 1.38 nan 0.04 0.01 0.02 0.02 0.03 0.39 0.32 0.31 0.80 0.20 0.12 0.02 0.10 0.11 0.04 0.27 1.43 0.90 0.00 0.01 0.13 0.62 0.21 0.75 0.71 0.46 0.43 0.67 0.82 1.25 1.31 1.05 0.84 0.54 0.35 0.68
0.37 0.27 0.00 0.00 6.81 3.60 1.08 0.92 0.24 0.10 0.10 0.05 0.20 0.01 0.01 0.86 0.84 0.05 0.10 0.01 0.01 0.07 0.18 0.02 1.64 2.04 0.84 0.50 0.02 0.29 0.09 0.12 0.29 0.16 0.56 1.12 0.67 0.89 0.85 0.96 1.23 1.24 0.92 0.86 0.86
0.13 2.69 1.55 0.61 0.23 0.74 1.11 1.05 0.67 0.06 0.03 0.05 0.06 0.01 0.02 0.60 0.05 0.52 0.08 0.01 0.00 0.06 nan nan 0.09 0.97 0.85 0.90 0.74 0.40 0.23 0.19 0.34 2.36 0.39 0.77 0.81 0.71 0.90 1.09 1.17 1.29 1.24 1.43 1.30
0.14 1.65 0.83 5.67 1.33 0.16 0.07 0.11 0.38 0.68 0.03 0.01 0.33 0.07 0.41 0.71 0.13 0.68 0.03 0.04 0.01 nan 0.01 0.09 2.49 0.05 0.22 0.26 0.29 0.46 0.56 0.27 0.88 0.94 1.92 1.11 0.71 1.34 1.50 1.57 1.83 1.68 1.52 1.46 1.55
0.49 0.74 0.24 0.65 0.07 0.10 0.25 0.18 0.28 0.27 0.14 0.21 0.25 0.06 0.02 0.80 0.08 0.14 0.08 0.01 0.09 0.04 0.00 0.02 3.14 0.40 1.21 0.04 0.04 0.38 0.06 0.13 0.64 0.51 0.76 0.31 1.15 1.75 1.72 1.14 1.46 1.77 1.60 1.50 1.62
0.00 0.00 0.00 nan 0.13 0.44 0.37 0.04 0.08 0.05 0.03 0.02 0.03 0.13 0.08 0.09 0.03 0.02 0.01 0.00 0.01 0.15 0.06 0.32 1.59 2.80 4.04 0.14 0.28 2.20 0.47 0.24 0.29 0.40 0.30 1.32 1.79 1.08 0.85 0.85 1.55 1.59 1.58 1.73 1.83
SL_Ratio
nan nan nan nan nan nan nan nan nan nan nan nan nan nan nan nan nan nan nan nan nan nan nan nan nan nan nan nan nan nan nan nan nan nan nan nan nan nan nan nan nan nan nan nan nan
nan nan nan nan nan nan nan nan nan nan nan nan nan nan nan nan nan nan nan nan nan nan nan nan nan nan nan nan nan nan nan nan nan nan nan nan nan nan nan nan nan nan nan nan nan
nan nan nan nan nan nan nan nan nan nan nan nan nan nan nan nan nan nan nan nan nan nan nan nan nan nan nan nan nan nan nan nan nan nan nan nan nan nan nan nan nan nan nan nan nan
nan nan nan nan nan nan nan nan nan nan nan nan nan nan nan nan 3.6 nan nan nan nan nan nan nan nan nan nan nan nan nan nan nan nan nan nan nan nan nan nan nan nan nan nan nan nan
nan nan nan nan nan nan nan nan nan nan nan nan nan nan nan nan nan nan nan nan nan nan nan nan nan nan nan nan nan nan nan nan nan nan nan nan nan nan nan nan nan nan nan nan nan
nan nan nan nan nan nan nan nan nan nan nan nan nan nan nan 2.1 nan nan nan nan nan nan nan nan nan nan nan nan nan nan nan nan nan nan nan nan nan nan nan nan nan nan nan nan nan
nan nan nan nan nan nan nan nan nan nan nan nan nan nan nan nan nan nan nan nan nan nan nan nan nan nan nan nan nan nan nan nan nan nan nan nan nan nan nan nan nan nan nan nan nan
nan nan nan nan nan nan nan nan nan nan nan nan nan nan nan nan nan nan nan nan nan nan nan nan nan nan nan nan nan nan 5.0 4.2 nan nan nan nan 3.7 nan nan nan nan nan nan nan nan
nan nan nan nan nan nan nan nan nan nan nan nan nan nan nan nan nan nan nan nan nan nan nan nan nan nan nan 4.5 4.5 3.4 4.1 3.2 nan nan nan nan 5.0 nan nan nan nan nan nan nan nan
nan nan nan nan nan nan nan nan nan nan nan nan nan nan nan nan nan nan nan nan nan nan nan nan nan 4.1 4.6 4.9 6.0 4.7 4.8 4.1 5.0 nan nan nan nan nan nan nan nan nan nan nan nan
nan nan nan nan nan nan nan nan nan nan nan 2.5 nan nan nan nan nan nan nan nan nan nan 3.6 2.9 4.8 5.9 3.2 3.0 3.1 nan 4.1 4.5 nan nan nan nan nan nan nan nan nan nan nan nan nan
nan nan nan nan nan nan nan nan nan nan 3.3 nan nan nan nan nan nan nan nan 2.5 2.8 3.6 3.3 4.6 6.0 nan nan nan 4.6 5.2 4.7 4.6 nan nan 5.6 5.0 nan nan nan nan nan nan nan nan nan
nan nan nan nan nan nan nan nan nan nan 3.5 nan nan nan nan nan nan 2.5 nan 3.3 3.5 3.6 4.3 5.5 5.0 nan 3.5 3.9 5.2 5.1 4.6 4.3 4.1 4.2 4.4 5.4 4.1 nan nan nan nan nan nan nan nan
nan nan nan nan nan nan nan nan nan nan 3.5 2.9 nan nan nan nan 2.8 nan nan 5.0 3.2 3.5 3.4 4.6 nan 3.7 4.5 4.9 5.0 6.4 nan 4.2 5.2 6.8 6.7 4.4 9.0 2.5 nan nan nan nan nan nan nan
nan nan nan nan nan nan nan nan nan 2.2 5.4 nan 2.5 nan nan 2.5 nan nan nan nan 3.0 3.0 4.3 4.8 4.3 4.4 4.6 nan 2.5 6.0 3.8 4.7 4.9 5.1 7.2 4.8 9.1 3.6 nan nan nan nan nan nan nan
nan nan nan nan nan nan nan nan nan 3.8 5.4 3.7 2.5 3.3 4.3 nan nan nan nan nan nan 2.8 3.1 4.2 nan 3.9 3.3 nan nan nan 5.0 4.3 4.9 5.1 8.5 4.8 6.2 4.5 5.1 8.0 nan nan nan nan nan
nan nan nan nan nan nan nan nan 3.8 4.4 3.2 2.9 3.4 3.8 4.4 4.3 3.3 nan nan nan 4.3 5.4 5.4 4.1 3.5 2.5 5.0 4.8 4.0 4.5 5.5 7.1 7.3 7.4 7.0 5.6 6.0 6.3 4.2 5.0 nan nan nan nan nan
nan nan nan nan nan nan nan 2.7 3.8 4.0 4.1 nan nan 3.3 4.4 3.8 3.8 3.5 3.3 2.9 nan 4.6 5.5 6.5 6.4 4.0 3.8 4.9 5.6 5.1 6.4 8.2 8.7 8.1 8.9 6.9 9.3 6.3 5.1 3.1 nan nan nan nan 6.4
nan nan nan nan nan nan 2.7 3.7 4.0 3.8 3.3 3.5 3.9 4.2 4.2 3.9 4.6 4.4 4.2 2.9 4.3 4.6 6.9 6.6 5.7 3.3 3.9 3.8 3.7 5.4 6.7 4.7 9.1 6.3 8.6 7.9 6.7 5.2 4.5 4.3 3.3 3.3 7.5 4.1 5.4
nan nan nan nan nan 2.3 3.2 nan 3.6 4.4 nan 4.1 4.5 4.7 4.6 4.1 4.5 5.1 4.4 3.8 4.1 4.4 4.1 5.2 8.0 3.9 3.9 3.9 4.0 4.8 4.5 7.6 6.7 7.7 9.4 9.3 9.6 8.6 8.0 6.5 4.0 4.4 5.5 5.1 4.9
nan 2.5 nan nan nan 2.8 3.6 3.8 3.9 4.0 nan 4.6 4.4 4.5 4.3 4.8 5.1 5.1 4.7 4.2 4.0 4.4 3.8 4.9 6.6 5.5 4.6 5.6 6.2 5.5 6.1 6.1 6.6 6.4 9.7 10.7 10.3 7.5 7.9 7.1 6.8 5.8 6.4 6.3 6.0
2.5 3.0 nan nan 3.7 3.7 4.2 3.9 nan 3.4 2.3 2.8 3.0 4.3 4.5 5.4 4.5 4.8 5.2 5.0 3.6 4.7 5.6 4.6 5.0 6.7 6.1 2.5 4.1 5.1 6.3 5.9 7.8 7.7 7.7 8.8 11.3 6.2 6.5 7.0 6.9 6.1 5.8 5.5 6.0
2.5 2.8 2.5 nan 4.3 4.5 4.4 4.5 4.1 4.0 3.6 2.8 3.7 2.8 3.3 5.5 6.4 4.4 4.6 2.7 3.5 5.0 5.8 4.6 4.4 5.7 6.3 7.0 4.2 5.9 5.4 5.3 5.7 6.2 8.3 7.6 12.0 6.2 6.4 7.3 6.4 7.0 5.7 5.3 5.2
2.5 3.9 3.0 2.7 3.5 4.1 4.4 4.5 5.1 4.3 3.9 3.2 3.6 3.0 3.6 7.1 4.3 5.8 4.7 3.9 3.8 4.7 nan nan 4.4 6.5 8.0 8.8 6.6 7.8 7.6 5.9 5.7 6.1 8.1 10.8 10.8 9.0 8.5 8.3 7.4 7.3 6.7 6.3 6.2
2.5 3.4 2.7 4.7 4.6 4.3 5.0 4.6 4.8 5.0 4.0 3.8 3.6 4.0 4.8 6.1 5.6 5.1 4.4 4.0 3.9 nan 4.4 4.8 4.9 4.6 6.1 6.0 6.9 5.5 7.6 7.5 7.8 6.9 7.0 9.3 10.1 9.3 8.9 8.7 8.1 7.1 7.2 7.2 6.9
2.8 3.1 3.7 3.8 4.9 5.4 4.5 4.8 5.2 4.8 4.3 4.4 4.5 3.0 3.2 5.6 5.2 5.6 5.4 4.7 4.9 4.1 nan 3.4 4.4 6.5 5.6 4.6 4.4 6.0 5.5 6.4 5.6 6.6 7.4 7.6 9.6 8.0 6.9 6.9 8.2 8.0 7.7 7.8 7.7
nan nan 1.7 nan 5.1 4.6 3.4 4.3 4.8 4.3 4.0 4.2 4.4 3.2 4.2 5.3 4.6 4.4 4.6 nan 3.9 4.2 3.2 3.6 4.4 4.7 5.4 5.7 6.2 6.2 9.6 9.3 8.5 8.0 7.6 8.2 8.3 7.3 8.5 8.6 8.5 8.3 8.4 8.5 8.3